{"data":{"norad_id":68331,"intl_designator":"2026-059L","name":"STARLINK-36932","alt_names":[],"object_type":"PAYLOAD","status":"ACTIVE","operator":null,"country":"US","launch_date":"2026-03-22","launch_site_code":"AFETR","launch_vehicle":null,"mission":null,"orbit_class":"UNKNOWN","rcs_meters":null,"size_class":null,"mass_kg":null,"dimensions":null,"purposes":["comms"],"wikipedia_slug":null,"has_3d_model":false,"image_url":null,"decayed_at":null,"tle_current":{"epoch":"2026-05-24T20:48:53.698752Z","epoch_age_seconds":82930,"freshness":"FRESH","line1":"1 68331U 26059L   26144.86728818 -.00027162  00000+0 -77070-3 0  9991","line2":"2 68331  53.1603 350.5163 0001179 104.9447 255.1687 15.35393706  9893","mean_motion":15.35393706,"eccentricity":0.0001179,"inclination_deg":53.1603,"raan_deg":350.5163,"arg_perigee_deg":104.9447,"mean_anomaly_deg":255.1687,"bstar":-0.0007707,"rev_number":989,"period_min":93.787019861602,"perigee_km":458.94514256325,"apogee_km":460.55751663137,"semimajor_km":6837.8883295973,"source":"CELESTRAK","updated_at":"2026-05-25T13:38:21.923458Z"}}}